Overview Statistics Trail Chart Weather Telemetry Raw packets
 

This is the latest recevied weather packets stored in our database for station/object IZ5ILU-16. If no packets are shown the sender has not sent any weather packets the latest 10 day(s).

<< 53 54 55 56 57 >>
Time Temp. Humidity Pressure Rain* Wind** Luminosity Snow
1787830541 28.89° C 55% 1016.6 hPa 0 mm - - -
1787829941 28.33° C 58% 1016.4 hPa 0 mm - - -
1787829341 27.78° C 62% 1016.5 hPa 0 mm - - -
1787828741 28.33° C 60% 1016.5 hPa 0 mm - - -
1787828141 27.78° C 57% 1016.5 hPa 0 mm - - -
1787827541 27.78° C 62% 1016.5 hPa 0 mm - - -
1787826941 27.78° C 59% 1016.6 hPa 0 mm - - -
1787826341 27.78° C 60% 1016.5 hPa 0 mm - - -
1787825741 27.78° C 61% 1016.5 hPa 0 mm - - -
1787825141 27.78° C 60% 1016.6 hPa 0 mm - - -
1787824541 27.78° C 63% 1016.6 hPa 0 mm - - -
1787823941 27.78° C 64% 1016.6 hPa 0 mm - - -
1787823341 27.22° C 65% 1016.5 hPa 0 mm - - -
1787822741 27.22° C 65% 1016.7 hPa 0 mm - - -
1787822141 27.22° C 66% 1016.6 hPa 0 mm - - -
1787821541 27.22° C 68% 1016.7 hPa 0 mm - - -
1787820941 26.67° C 69% 1016.8 hPa 0 mm - - -
1787820341 26.67° C 70% 1016.6 hPa 0 mm - - -
1787819741 26.11° C 73% 1016.6 hPa 0 mm - - -
1787819141 26.11° C 73% 1016.7 hPa 0 mm - - -
1787818541 25.56° C 75% 1016.8 hPa 0 mm - - -
1787817941 25.56° C 75% 1016.8 hPa 0 mm - - -
1787817341 25.56° C 76% 1016.8 hPa 0 mm - - -
1787816741 25° C 76% 1016.8 hPa 0 mm - - -
1787816141 25° C 77% 1016.9 hPa 0 mm - - -

* Rain latest hour (hover to see other rain measurements)
** Current wind speed in m/s (hover to see current wind gust speed)